N6GIW Weather Reports


Display with metric or nautical units.
time (UTC)temp
F
wind
direction
speed
MPH
gust
MPH
rain 1hr
in
rain 24hr
in
rain mn
in
humidity
%
barometer
mb
20260903121503 57 232 0.0 2.0 0.00 0.00 0.00 30 1021.0
20260903121004 57 232 0.0 0.0 0.00 0.00 0.00 30 1021.0
20260903120503 57 232 0.0 0.0 0.00 0.00 0.00 30 1020.9
20260903115503 57 232 0.0 1.0 0.00 0.00 0.00 30 1020.9
20260903115003 57 234 0.0 0.0 0.00 0.00 0.00 31 1021.0
20260903114004 56 232 0.0 0.0 0.00 0.00 0.00 30 1021.1
20260903113503 56 232 0.0 0.0 0.00 0.00 0.00 30 1021.0
20260903112504 57 232 0.0 0.0 0.00 0.00 0.00 30 1021.0
20260903112003 57 232 0.0 0.0 0.00 0.00 0.00 30 1021.0
20260903111503 57 232 0.0 0.0 0.00 0.00 0.00 30 1021.0
20260903111004 57 232 0.0 1.0 0.00 0.00 0.00 31 1021.0
20260903110503 56 232 0.0 0.0 0.00 0.00 0.00 31 1020.9
20260903110003 57 232 0.0 0.0 0.00 0.00 0.00 31 1020.9
20260903105003 58 232 0.0 0.0 0.00 0.00 0.00 31 1020.9
20260903104503 59 232 0.0 1.0 0.00 0.00 0.00 32 1020.9
20260903103503 57 232 0.0 0.0 0.00 0.00 0.00 34 1020.9
20260903103003 57 232 0.0 1.0 0.00 0.00 0.00 34 1021.1
20260903102503 57 232 0.0 1.0 0.00 0.00 0.00 34 1021.1
20260903102003 57 232 0.0 2.0 0.00 0.00 0.00 32 1021.1
20260903101004 59 232 0.0 0.0 0.00 0.00 0.00 31 1021.2
20260903100503 60 232 0.0 0.0 0.00 0.00 0.00 30 1021.2
20260903095503 59 234 0.0 0.0 0.00 0.00 0.00 32 1021.3
20260903095003 59 234 0.0 0.0 0.00 0.00 0.00 33 1021.3
20260903094502 59 234 0.0 0.0 0.00 0.00 0.00 33 1021.3
20260903094003 60 234 0.0 0.0 0.00 0.00 0.00 33 1021.2
20260903093503 60 234 0.0 0.0 0.00 0.00 0.00 32 1021.3
20260903093004 61 234 0.0 2.0 0.00 0.00 0.00 32 1021.3
20260903092503 61 234 0.0 1.0 0.00 0.00 0.00 32 1021.2
20260903092003 62 234 0.0 0.0 0.00 0.00 0.00 31 1021.3
20260903091504 62 234 0.0 2.0 0.00 0.00 0.00 32 1021.3
20260903091003 62 234 0.0 2.0 0.00 0.00 0.00 31 1021.4
20260903090003 63 233 1.0 3.0 0.00 0.00 0.00 28 1021.5
20260903085503 63 232 0.0 1.0 0.00 0.00 0.00 29 1021.5
20260903084503 61 240 0.0 0.0 0.00 0.00 0.00 31 1021.6
20260903084012 61 242 0.0 3.0 0.00 0.00 0.00 31 1021.5
20260903082004 61 238 0.0 2.0 0.00 0.00 0.00 29 1021.7
20260903081003 62 243 2.0 3.0 0.00 0.00 0.00 30 1021.7
20260903080504 63 249 1.0 2.0 0.00 0.00 0.00 31 1021.7
20260903075503 63 236 2.0 3.0 0.00 0.00 0.00 32 1021.8
20260903074503 63 213 1.0 5.0 0.00 0.00 0.00 30 1021.7
20260903074004 64 203 4.0 6.0 0.00 0.00 0.00 29 1021.7
20260903073503 63 207 5.0 6.0 0.00 0.00 0.00 30 1021.8
20260903073003 63 211 1.0 3.0 0.00 0.00 0.00 33 1021.8
20260903072503 62 217 1.0 3.0 0.00 0.00 0.00 34 1021.7
20260903072003 62 223 0.0 1.0 0.00 0.00 0.00 33 1021.7
20260903071503 62 223 0.0 2.0 0.00 0.00 0.00 33 1021.8
20260903071004 62 223 0.0 1.0 0.00 0.00 0.00 34 1021.8
20260903070503 62 223 0.0 1.0 0.00 0.00 0.00 33 1021.8
20260903070003 62 223 0.0 3.0 0.00 0.00 0.00 33 1021.9
20260903065503 63 223 1.0 3.0 0.00 0.00 0.00 33 1021.9
20260903065003 63 241 0.0 1.0 0.00 0.00 0.00 34 1021.9
20260903064503 63 241 0.0 1.0 0.00 0.00 0.00 34 1021.9
20260903063503 63 295 0.0 0.0 0.00 0.00 0.00 33 1022.0
20260903063003 64 295 0.0 0.0 0.00 0.00 0.00 34 1022.1
20260903062503 64 295 0.0 0.0 0.00 0.00 0.00 34 1022.1
20260903062005 64 295 0.0 2.0 0.00 0.00 0.00 35 1022.1
20260903061004 64 201 0.0 2.0 0.00 0.00 0.00 35 1022.1
20260903060503 64 200 0.0 1.0 0.00 0.00 0.00 35 1022.2
20260903060003 64 194 0.0 1.0 0.00 0.00 0.00 35 1022.3
20260903055503 63 192 0.0 0.0 0.00 0.00 0.00 34 1022.3
20260903055003 64 192 0.0 0.0 0.00 0.00 0.00 33 1022.3
20260903053503 64 192 0.0 0.0 0.00 0.00 0.00 33 1022.5
20260903052529 65 192 1.0 2.0 0.00 0.00 0.00 33 1022.4
20260903052004 65 192 0.0 0.0 0.00 0.00 0.00 33 1022.4
20260903051505 65 192 0.0 0.0 0.00 0.00 0.00 33 1022.4
20260903051003 65 192 0.0 0.0 0.00 0.00 0.00 33 1022.4
20260903050503 66 192 0.0 0.0 0.00 0.00 0.00 33 1022.4
20260903050003 66 192 0.0 0.0 0.00 0.00 0.00 33 1022.4
20260903045504 66 192 0.0 0.0 0.00 0.00 0.00 32 1022.4
20260903045003 67 192 0.0 0.0 0.00 0.00 0.00 32 1022.4
20260903044004 68 192 1.0 3.0 0.00 0.00 0.00 32 1022.4
20260903043503 68 190 1.0 3.0 0.00 0.00 0.00 32 1022.3
20260903043003 68 186 2.0 3.0 0.00 0.00 0.00 31 1022.3
20260903042503 68 186 2.0 3.0 0.00 0.00 0.00 31 1022.2
20260903041003 69 174 0.0 2.0 0.00 0.00 0.00 31 1022.2
20260903040504 69 175 2.0 3.0 0.00 0.00 0.00 30 1022.0
20260903040003 70 179 2.0 3.0 0.00 0.00 0.00 30 1022.0
20260903035503 70 180 3.0 3.0 0.00 0.00 0.00 30 1021.9
20260903035003 70 198 0.0 2.0 0.00 0.00 0.00 29 1021.9
20260903034503 71 198 0.0 3.0 0.00 0.00 0.00 29 1021.9
20260903034003 71 199 2.0 3.0 0.00 0.00 0.00 29 1021.9
20260903033503 72 202 0.0 0.0 0.00 0.00 0.00 29 1021.9
20260903032504 73 204 1.0 3.0 0.00 0.00 0.00 28 1021.7
20260903032003 74 204 4.0 7.0 0.00 0.00 0.00 28 1021.7
20260903031504 74 187 7.0 9.0 0.00 0.00 0.00 28 1021.5
20260903031003 74 189 5.0 7.0 0.00 0.00 0.00 28 1021.4
20260903030503 74 194 5.0 8.0 0.00 0.00 0.00 28 1021.3
20260903030003 74 202 5.0 6.0 0.00 0.00 0.00 27 1021.5
20260903025503 75 203 5.0 7.0 0.00 0.00 0.00 27 1021.5
20260903025010 75 205 6.0 7.0 0.00 0.00 0.00 27 1021.6
20260903024003 76 198 5.0 7.0 0.00 0.00 0.00 27 1021.4
20260903022504 77 186 5.0 6.0 0.00 0.00 0.00 26 1021.4
20260903022011 77 208 3.0 5.0 0.00 0.00 0.00 25 1021.5
20260903021503 78 217 1.0 3.0 0.00 0.00 0.00 24 1021.4
20260903021003 79 209 3.0 5.0 0.00 0.00 0.00 24 1021.5
20260903020503 79 190 4.0 9.0 0.00 0.00 0.00 24 1021.5
20260903020008 80 207 4.0 9.0 0.00 0.00 0.00 23 1021.5
20260903015503 80 202 7.0 9.0 0.00 0.00 0.00 23 1021.5
20260903014504 81 193 5.0 12.0 0.00 0.00 0.00 22 1021.6
20260903013503 82 237 8.0 14.0 0.00 0.00 0.00 21 1021.5
20260903013004 82 229 8.0 15.0 0.00 0.00 0.00 20 1021.5
20260903012503 83 214 8.0 15.0 0.00 0.00 0.00 20 1021.6
20260903012003 83 219 8.0 13.0 0.00 0.00 0.00 19 1021.4
20260903011503 83 216 9.0 14.0 0.00 0.00 0.00 19 1021.5
20260903011003 84 224 9.0 13.0 0.00 0.00 0.00 18 1021.5
20260903010503 84 230 7.0 12.0 0.00 0.00 0.00 18 1021.4
20260903005503 85 213 9.0 15.0 0.00 0.00 0.00 17 1021.4
20260903005005 85 213 9.0 16.0 0.00 0.00 0.00 17 1021.4
20260903004503 85 203 9.0 14.0 0.00 0.00 0.00 16 1021.4
20260903004004 85 214 11.0 15.0 0.00 0.00 0.00 16 1021.3
20260903003503 86 210 10.0 14.0 0.00 0.00 0.00 15 1021.3
20260903002503 86 223 9.0 17.0 0.00 0.00 0.00 15 1021.3
20260903001504 87 212 10.0 14.0 0.00 0.00 0.00 13 1021.3
20260903001003 87 199 13.0 17.0 0.00 0.00 0.00 13 1021.3
20260903000503 88 213 7.0 15.0 0.00 0.00 0.00 13 1021.3
20260903000004 88 216 10.0 15.0 0.00 0.00 0.00 13 1021.3
20260902235503 88 199 7.0 12.0 0.00 0.00 0.00 13 1021.4
20260902234504 88 224 10.0 16.0 0.00 0.00 0.00 12 1021.4
20260902234004 88 219 9.0 20.0 0.00 0.00 0.00 12 1021.4
20260902233503 88 197 9.0 13.0 0.00 0.00 0.00 12 1021.5
20260902233004 88 182 10.0 14.0 0.00 0.00 0.00 12 1021.4
20260902232503 89 206 9.0 17.0 0.00 0.00 0.00 12 1021.5
20260902232004 89 201 9.0 14.0 0.00 0.00 0.00 12 1021.6
20260902231004 89 188 8.0 12.0 0.00 0.00 0.00 11 1021.6
20260902230504 89 211 7.0 15.0 0.00 0.00 0.00 12 1021.7
20260902230003 89 184 9.0 16.0 0.00 0.00 0.00 11 1021.8
20260902225503 89 225 9.0 16.0 0.00 0.00 0.00 11 1021.7
20260902225003 89 188 9.0 15.0 0.00 0.00 0.00 11 1021.8
20260902223003 89 254 5.0 12.0 0.00 0.00 0.00 10 1022.0
20260902222503 89 227 7.0 14.0 0.00 0.00 0.00 11 1022.0
20260902221503 89 226 9.0 15.0 0.00 0.00 0.00 10 1022.1
20260902221003 89 227 9.0 16.0 0.00 0.00 0.00 10 1022.1
20260902220504 89 245 13.0 20.0 0.00 0.00 0.00 10 1022.3
20260902215503 89 239 8.0 13.0 0.00 0.00 0.00 10 1022.4
20260902215004 89 230 13.0 18.0 0.00 0.00 0.00 9 1022.4
20260902214503 89 218 11.0 21.0 0.00 0.00 0.00 9 1022.3
20260902214003 89 246 12.0 18.0 0.00 0.00 0.00 8 1022.4
20260902213504 89 232 13.0 20.0 0.00 0.00 0.00 6 1022.3
20260902212503 89 222 15.0 22.0 0.00 0.00 0.00 6 1022.3
20260902211503 89 234 14.0 23.0 0.00 0.00 0.00 6 1022.4
20260902211004 89 230 12.0 20.0 0.00 0.00 0.00 6 1022.3
20260902210504 89 209 15.0 25.0 0.00 0.00 0.00 6 1022.5
20260902205503 89 212 13.0 24.0 0.00 0.00 0.00 6 1022.6
20260902205004 88 232 14.0 23.0 0.00 0.00 0.00 6 1022.7
20260902204503 88 244 15.0 23.0 0.00 0.00 0.00 6 1022.8
20260902204003 89 209 13.0 21.0 0.00 0.00 0.00 6 1022.9
20260902203503 89 231 13.0 25.0 0.00 0.00 0.00 6 1022.8
20260902203004 89 223 12.0 20.0 0.00 0.00 0.00 6 1022.9
20260902202503 89 227 12.0 20.0 0.00 0.00 0.00 6 1022.9
20260902201503 88 236 13.0 21.0 0.00 0.00 0.00 6 1023.0
20260902201003 89 217 14.0 23.0 0.00 0.00 0.00 6 1022.9
20260902200503 89 229 14.0 22.0 0.00 0.00 0.00 5 1023.0
20260902200003 88 232 13.0 22.0 0.00 0.00 0.00 6 1023.1
20260902195004 89 236 12.0 20.0 0.00 0.00 0.00 6 1023.0
20260902193503 88 247 11.0 20.0 0.00 0.00 0.00 6 1023.3
20260902193010 88 238 10.0 17.0 0.00 0.00 0.00 6 1023.3
20260902192503 88 240 12.0 18.0 0.00 0.00 0.00 6 1023.2
20260902192005 89 218 12.0 20.0 0.00 0.00 0.00 6 1023.3
20260902191506 88 241 11.0 18.0 0.00 0.00 0.00 6 1023.5
20260902190503 88 221 12.0 20.0 0.00 0.00 0.00 6 1023.5
20260902190005 88 237 12.0 18.0 0.00 0.00 0.00 6 1023.7
20260902185005 87 219 10.0 20.0 0.00 0.00 0.00 6 1023.8
20260902183505 86 159 5.0 10.0 0.00 0.00 0.00 8 1023.9
20260902183003 85 146 1.0 8.0 0.00 0.00 0.00 11 1023.9
20260902182520 85 160 2.0 12.0 0.00 0.00 0.00 10 1023.9
20260902182019 84 135 5.0 10.0 0.00 0.00 0.00 11 1024.1
20260902181504 83 111 1.0 3.0 0.00 0.00 0.00 13 1024.0
20260902181005 83 122 1.0 8.0 0.00 0.00 0.00 13 1024.1
20260902180503 82 99 1.0 6.0 0.00 0.00 0.00 13 1024.2
20260902174503 81 40 0.0 5.0 0.00 0.00 0.00 14 1024.2
20260902173003 79 30 1.0 5.0 0.00 0.00 0.00 15 1024.4
20260902164503 78 25 3.0 8.0 0.00 0.00 0.00 16 1024.2
20260902163504 77 21 2.0 9.0 0.00 0.00 0.00 17 1024.1
20260902160004 75 36 4.0 7.0 0.00 0.00 0.00 17 1023.9
20260902154503 75 20 3.0 7.0 0.00 0.00 0.00 18 1023.9
20260902154005 75 44 2.0 5.0 0.00 0.00 0.00 18 1024.0
20260902153503 75 35 1.0 3.0 0.00 0.00 0.00 18 1023.9
20260902150004 73 22 1.0 3.0 0.00 0.00 0.00 18 1023.7
20260902145004 72 342 0.0 2.0 0.00 0.00 0.00 19 1023.6
20260902144503 71 342 0.0 0.0 0.00 0.00 0.00 19 1023.6
20260902144004 70 342 0.0 0.0 0.00 0.00 0.00 19 1023.5
20260902143504 70 342 0.0 0.0 0.00 0.00 0.00 20 1023.5
20260902143003 69 342 0.0 0.0 0.00 0.00 0.00 20 1023.6
20260902142503 68 342 0.0 0.0 0.00 0.00 0.00 20 1023.5
20260902141529 67 341 0.0 2.0 0.00 0.00 0.00 20 1023.5
20260902141004 66 331 0.0 3.0 0.00 0.00 0.00 20 1023.3
20260902134004 66 271 2.0 3.0 0.00 0.00 0.00 21 1023.0
20260902133503 66 261 1.0 3.0 0.00 0.00 0.00 21 1022.9
20260902132503 65 267 2.0 7.0 0.00 0.00 0.00 23 1022.8
20260902132004 62 263 1.0 6.0 0.00 0.00 0.00 24 1022.8
20260902131503 62 218 0.0 3.0 0.00 0.00 0.00 24 1022.9
20260902131004 63 211 1.0 3.0 0.00 0.00 0.00 24 1022.9
20260902130004 62 230 1.0 3.0 0.00 0.00 0.00 24 1022.9
20260902125503 63 205 0.0 3.0 0.00 0.00 0.00 24 1022.9
20260902124504 64 223 1.0 3.0 0.00 0.00 0.00 24 1022.9
20260902123004 64 256 2.0 5.0 0.00 0.00 0.00 24 1022.9
20260902122503 64 240 1.0 5.0 0.00 0.00 0.00 24 1023.0
20260902122004 64 240 1.0 3.0 0.00 0.00 0.00 25 1023.0